Location: Newark
(54.4333°N, 18.5500°E)
Time: 11:06:05
(UTC+00:00)

Envisat - Pass Details

Date: 16 December 2019
Orbit: 764 x 766 km, 98.1° (Epoch: 26 January)

Event Time Altitude Azimuth Distance (km) Brightness Sun altitude
Rises 17:15:07 0° 188° (S) 3,224 6.4 -23.6°
Reaches altitude 10° 17:17:34 10° 197° (SSW) 2,302 5.7 -24.0°
Maximum altitude 17:22:15 37° 264° (W) 1,186 4.5 -24.6°
Drops below altitude 10° 17:26:59 10° 332° (NNW) 2,318 5.7 -25.3°
Sets 17:29:29 0° 341° (NNW) 3,249 6.4 -25.7°
